Change the Weather History Date:

Thursday, January 3, 2013

  Actual Average Record
Temperature  
Mean Temperature 34 °F -  
Max Temperature 35 °F 30 °F 48 °F (2001)
Min Temperature 32 °F 21 °F -11 °F (1997)
Degree Days  
Heating Degree Days 32    
Moisture  
Dew Point 30 °F    
Average Humidity 86    
Maximum Humidity 93    
Minimum Humidity 81    
Precipitation  
Precipitation 0.00 in - - ()
Sea Level Pressure  
Sea Level Pressure 29.88 in    
Wind  
Wind Speed 1 mph (NE)    
Max Wind Speed 7 mph    
Max Gust Speed -    
Visibility 6 miles    
Events      
Averages and records for this station are not official NWS values.
T = Trace of Precipitation, MM = Missing Value Source: NWS Daily Summary

Daily Weather History Graph

Daily Weather History Graph

Search for Another Location

Airport or City:

Trip Planner

Search our weather history database for the weather conditions in past years. The results will help you decide how hot, cold, wet, or windy it might be!

Date:

Astronomy

Jan. 03, 2013 Rise Set
Actual Time 8:50 AM AKST 3:25 PM AKST
Civil Twilight 7:58 AM AKST 4:16 PM AKST
Nautical Twilight 7:05 AM AKST 5:09 PM AKST
Astronomical Twilight 6:17 AM AKST 5:58 PM AKST
Moon 11:52 PM AKST (1/3) 10:31 AM AKST (1/3)
Length of Visible Light 8h 18m
Length of Day
6h 34m
Waning Gibbous, 64% of the Moon is Illuminated
Jan 3
Waning Gibbous
Jan 4
Last Quarter
Jan 11
New
Jan 18
First Quarter
Jan 26
Full

Hourly Weather History & Observations

Time (AKST) Temp. Windchill Dew Point Humidity Pressure Visibility Wind Dir Wind Speed Gust Speed Precip Events Conditions
12:16 AM 35.6 °F - 30.2 °F 81% 29.99 in 10.0 mi Calm Calm - N/A   Overcast
12:36 AM 35.6 °F - 30.2 °F 81% 29.98 in 10.0 mi Calm Calm - N/A   Overcast
12:56 AM 35.6 °F 32.8 °F 30.2 °F 81% 29.98 in 10.0 mi NE 3.5 mph - N/A   Overcast
1:16 AM 35.6 °F - 30.2 °F 81% 29.98 in 10.0 mi Calm Calm - N/A   Overcast
1:36 AM 33.8 °F - 30.2 °F 87% 29.99 in 10.0 mi Calm Calm - N/A   Overcast
1:56 AM 33.8 °F 30.8 °F 30.2 °F 87% 29.99 in 10.0 mi NW 3.5 mph - N/A   Overcast
2:16 AM 33.8 °F 30.8 °F 30.2 °F 87% 29.99 in 10.0 mi NNE 3.5 mph - N/A   Overcast
2:36 AM 33.8 °F - 30.2 °F 87% 30.00 in 10.0 mi Calm Calm - N/A   Overcast
2:56 AM 33.8 °F - 30.2 °F 87% 30.01 in 10.0 mi Calm Calm - N/A   Overcast
3:16 AM 33.8 °F 30.8 °F 30.2 °F 87% 30.00 in 10.0 mi East 3.5 mph - N/A   Overcast
3:36 AM 33.8 °F 30.8 °F 30.2 °F 87% 29.99 in 10.0 mi NNW 3.5 mph - N/A   Overcast
3:56 AM 33.8 °F - 30.2 °F 87% 29.99 in 10.0 mi Calm Calm - N/A   Overcast
4:16 AM 33.8 °F - 30.2 °F 87% 29.99 in 10.0 mi Calm Calm - N/A   Overcast
4:36 AM 33.8 °F - 30.2 °F 87% 29.98 in 10.0 mi Calm Calm - N/A   Overcast
4:56 AM 33.8 °F 29.6 °F 30.2 °F 87% 29.97 in 10.0 mi NE 4.6 mph - N/A   Overcast
5:16 AM 33.8 °F - 30.2 °F 87% 29.97 in 10.0 mi Calm Calm - N/A   Overcast
5:36 AM 33.8 °F 30.8 °F 30.2 °F 87% 29.97 in 10.0 mi NNE 3.5 mph - N/A   Overcast
5:56 AM 33.8 °F 30.8 °F 30.2 °F 87% 29.97 in 10.0 mi North 3.5 mph - N/A   Overcast
6:16 AM 33.8 °F 28.6 °F 30.2 °F 87% 29.97 in 10.0 mi North 5.8 mph - N/A   Overcast
6:36 AM 33.8 °F 27.7 °F 30.2 °F 87% 29.97 in 10.0 mi North 6.9 mph - N/A   Overcast
6:56 AM 33.8 °F - 30.2 °F 87% 29.97 in 10.0 mi Calm Calm - N/A   Overcast
7:16 AM 33.8 °F 30.8 °F 30.2 °F 87% 29.96 in 7.0 mi North 3.5 mph - N/A   Overcast
7:36 AM 33.8 °F - 28.4 °F 81% 29.96 in 8.0 mi Calm Calm - N/A   Overcast
7:56 AM 33.8 °F - 28.4 °F 81% 29.95 in 2.0 mi Calm Calm - N/A   Overcast
8:16 AM 33.8 °F - 30.2 °F 87% 29.95 in 10.0 mi Calm Calm - N/A   Overcast
8:36 AM 33.8 °F 30.8 °F 30.2 °F 87% 29.96 in 5.0 mi SSE 3.5 mph - N/A   Overcast
8:56 AM 33.8 °F - 30.2 °F 87% 29.95 in 0.8 mi Calm Calm - N/A   Overcast
9:16 AM 33.8 °F - 30.2 °F 87% 29.95 in 1.0 mi Calm Calm - N/A   Overcast
9:36 AM 33.8 °F - 30.2 °F 87% 29.95 in 1.5 mi Calm Calm - N/A   Overcast
9:56 AM 33.8 °F - 28.4 °F 81% 29.94 in 4.0 mi Calm Calm - N/A   Overcast
10:16 AM 33.8 °F - 30.2 °F 87% 29.94 in 5.0 mi Calm Calm - N/A   Overcast
10:36 AM 33.8 °F - 30.2 °F 87% 29.93 in 1.0 mi Calm Calm - N/A   Overcast
10:56 AM 33.8 °F - 30.2 °F 87% 29.92 in 0.8 mi Calm Calm - N/A   Overcast
11:16 AM 33.8 °F - 30.2 °F 87% 29.92 in 0.5 mi Calm Calm - N/A   Overcast
11:36 AM 33.8 °F - 30.2 °F 87% 29.90 in 0.5 mi Calm Calm - N/A   Overcast
11:56 AM 33.8 °F - 30.2 °F 87% 29.89 in 1.0 mi Calm Calm - N/A   Overcast
12:16 PM 33.8 °F - 30.2 °F 87% 29.89 in 1.2 mi Calm Calm - N/A   Overcast
12:36 PM 33.8 °F - 30.2 °F 87% 29.88 in 0.5 mi Calm Calm - N/A   Overcast
12:56 PM 33.8 °F 30.8 °F 30.2 °F 87% 29.86 in 0.5 mi East 3.5 mph - N/A   Overcast
1:16 PM 32.0 °F 28.7 °F 28.4 °F 87% 29.86 in 1.0 mi East 3.5 mph - N/A   Overcast
1:36 PM 32.0 °F 28.7 °F 28.4 °F 87% 29.85 in 3.0 mi ESE 3.5 mph - N/A   Overcast
1:56 PM 32.0 °F - 28.4 °F 87% 29.84 in 0.2 mi Calm Calm - N/A   Overcast
2:16 PM 32.0 °F - 28.4 °F 87% 29.83 in 0.2 mi Calm Calm - N/A   Overcast
2:36 PM 32.0 °F - 30.2 °F 93% 29.83 in 0.5 mi Calm Calm - N/A   Overcast
3:16 PM 33.8 °F - 28.4 °F 81% 29.81 in 0.5 mi Calm Calm - N/A   Overcast
3:36 PM 32.0 °F - 28.4 °F 87% 29.81 in 3.0 mi Calm Calm - N/A   Overcast
3:56 PM 32.0 °F - 28.4 °F 87% 29.80 in 3.0 mi Calm Calm - N/A   Overcast
4:16 PM 33.8 °F 30.8 °F 30.2 °F 87% 29.80 in 10.0 mi ENE 3.5 mph - N/A   Overcast
4:36 PM 33.8 °F 30.8 °F 30.2 °F 87% 29.79 in 10.0 mi ENE 3.5 mph - N/A   Overcast
4:56 PM 33.8 °F - 28.4 °F 81% 29.79 in 10.0 mi Calm Calm - N/A   Overcast
5:16 PM 33.8 °F - 30.2 °F 87% 29.78 in 10.0 mi Calm Calm - N/A   Overcast
5:36 PM 33.8 °F - 28.4 °F 81% 29.78 in 10.0 mi Calm Calm - N/A   Overcast
5:56 PM 33.8 °F - 30.2 °F 87% 29.78 in 10.0 mi Calm Calm - N/A   Overcast
6:16 PM 33.8 °F - 30.2 °F 87% 29.78 in 10.0 mi Calm Calm - N/A   Overcast
6:36 PM 33.8 °F - 30.2 °F 87% 29.78 in 10.0 mi Calm Calm - N/A   Overcast
6:56 PM 33.8 °F - 30.2 °F 87% 29.78 in 8.0 mi Calm Calm - N/A   Overcast
7:16 PM 33.8 °F - 30.2 °F 87% 29.77 in 5.0 mi Calm Calm - N/A   Overcast
7:36 PM 33.8 °F - 30.2 °F 87% 29.77 in 5.0 mi Calm Calm - N/A   Overcast
7:56 PM 33.8 °F - 30.2 °F 87% 29.77 in 3.0 mi Calm Calm - N/A   Overcast
8:16 PM 33.8 °F - 30.2 °F 87% 29.77 in 3.0 mi Calm Calm - N/A   Overcast
8:36 PM 33.8 °F - 30.2 °F 87% 29.76 in 2.0 mi Calm Calm - N/A   Overcast
8:56 PM 33.8 °F - 30.2 °F 87% 29.76 in 2.0 mi Calm Calm - N/A   Overcast
9:16 PM 33.8 °F - 30.2 °F 87% 29.76 in 1.5 mi Calm Calm - N/A   Overcast
9:36 PM 33.8 °F - 30.2 °F 87% 29.76 in 1.5 mi Calm Calm - N/A   Overcast
9:56 PM 33.8 °F - 30.2 °F 87% 29.76 in 2.0 mi Calm Calm - N/A   Overcast
10:16 PM 33.8 °F - 30.2 °F 87% 29.76 in 2.5 mi Calm Calm - N/A   Overcast
10:36 PM 33.8 °F - 30.2 °F 87% 29.77 in 3.0 mi Calm Calm - N/A   Overcast
10:56 PM 33.8 °F - 30.2 °F 87% 29.78 in 2.0 mi Calm Calm - N/A   Overcast
11:16 PM 33.8 °F - 30.2 °F 87% 29.78 in 2.0 mi Calm Calm - N/A   Overcast
11:36 PM 33.8 °F - 30.2 °F 87% 29.79 in 2.5 mi Calm Calm - N/A   Overcast
11:56 PM 33.8 °F - 30.2 °F 87% 29.80 in 2.5 mi Calm Calm - N/A   Overcast